Simultaneous Nadir Overpasses (SNOs) Predictions

Prediction of SNOs between NPP and GCOM-C Satellite Orbit:

Table of predicted SNOs for the next 14.0 days since TLE Epoch: 7/23/2022
Index Date (NPP) Time (NPP) Lat,Lon (NPP) SZA (NPP ) Date (GCOM-C) Time (GCOM-C) Lat,Lon (GCOM-C) SZA (GCOM-C ) Distance(km) Time Diff (sec)
1 07/29/2022 05:54:35 -69.27, -91.12 129.52 07/29/2022 05:55:44 -69.24, -89.27 129.60 73.01 69
2 07/29/2022 06:45:10 68.67, 77.02 49.87 07/29/2022 06:46:22 68.64, 77.31 49.83 12.54 72
3 07/29/2022 07:35:51 -68.53,-115.48 130.27 07/29/2022 07:36:54 -68.54,-115.45 130.27 1.56 63
4 07/29/2022 08:26:36 68.46, 51.92 49.67 07/29/2022 08:27:22 68.48, 51.86 49.68 3.16 46
5 07/29/2022 09:17:20 -68.48,-140.79 130.31 07/29/2022 09:17:52 -68.48,-140.76 130.31 1.31 32
6 07/29/2022 10:08:05 68.41, 26.61 49.63 07/29/2022 10:08:20 68.42, 26.55 49.64 2.90 15
7 07/29/2022 10:58:49 -68.43,-166.10 130.34 07/29/2022 10:58:50 -68.43,-166.07 130.35 1.25 1
8 07/29/2022 11:49:34 68.36, 1.31 49.59 07/29/2022 11:49:18 68.37, 1.25 49.61 2.69 16
9 07/29/2022 12:40:18 -68.38, 168.60 130.38 07/29/2022 12:39:48 -68.37, 168.63 130.38 1.40 30
10 07/29/2022 13:31:03 68.30, -24.00 49.56 07/29/2022 13:30:16 68.31, -24.06 49.57 2.55 47
11 07/29/2022 14:21:47 -68.33, 143.29 130.42 07/29/2022 14:20:46 -68.31, 143.32 130.42 1.71 61
12 07/29/2022 15:12:30 68.15, -49.17 49.41 07/29/2022 15:11:16 68.14, -49.51 49.43 13.85 74
13 07/29/2022 16:03:05 -67.68, 118.72 131.06 07/29/2022 16:01:55 -67.66, 117.27 131.04 61.11 70



Historial Predications of SNOs between NPP and GCOM-C
